Temp
12 10 10 13 13 13 11 10 11 12 16 16 16 17 19 16 16 18 21 22 22 20 15 15 15 16 16 16 15 15 15 16 16 16 17 18 18 18 18 18 18 18 18 18
11 10 14 13 13 12 11 10 11 13 15 15 17 17 19 16 15 16 18 20 20 15 14 14 14 15 15 15 15 15 15 17 17 17 18 17 18 18 18 17 17 17 17 17
12 14 13 10 10 11 11 11 12 11 14 15 16 13 15 17 16 16 17 17 17 16 14 14 14 14 14 15 15 15 15 15 16 15 16 16 16 17 17 16 16 16 16 16
12 13 11 11 9 9 11 13 11 12 15 15 16 15 13 14 14 15 15 15 14 14 14 14 14 13 14 14 14 14 15 15 16 16 15 15 16 16 16 16 16 16 16 15
11 11 12 11 10 12 12 14 14 12 12 14 14 16 12 11 14 14 14 14 13 13 12 12 12 12 12 13 13 14 14 14 15 16 16 15 15 15 15 15 15 15 16 15
10 14 13 12 13 14 13 13 13 13 13 14 13 15 12 11 10 11 12 11 13 13 11 11 12 13 13 13 14 14 14 16 16 16 16 16 16 15 15 14 14 15 16 15
14 12 11 11 11 12 13 14 14 15 15 14 12 15 11 10 12 10 11 11 11 12 12 11 12 13 13 13 14 14 14 14 14 14 15 15 17 16 15 16 15 15 15 15
12 12 10 12 13 15 13 15 14 15 16 14 15 13 11 10 11 9 10 10 10 10 10 10 12 12 12 12 13 13 13 13 13 13 13 13 14 15 15 15 14 14 15 14
12 12 11 13 15 15 16 16 17 18 19 17 14 12 13 12 10 10 10 10 10 9 9 11 11 13 13 13 13 13 13 13 12 12 12 13 13 13 13 13 14 15 14 15
12 12 13 15 15 16 15 17 17 18 16 16 16 16 15 14 11 11 10 9 9 10 11 11 12 12 12 12 12 12 12 12 12 12 12 12 12 13 13 13 13 13 13 13
14 14 15 16 15 15 17 17 18 18 17 19 17 16 17 16 15 14 12 11 10 10 11 12 12 12 12 12 11 11 11 11 11 11 11 12 12 11 12 12 12 12 12 12
15 16 15 15 16 16 16 17 18 19 17 18 19 16 17 16 16 14 13 12 11 11 11 12 12 12 11 11 11 11 10 10 10 10 11 11 11 11 11 11 11 11 11 11
16 16 15 17 17 18 17 18 19 18 19 17 19 16 17 16 15 15 14 13 12 12 12 12 12 12 11 10 10 10 10 10 9 9 10 10 10 10 10 11 11 11 11 11
15 16 15 16 14 16 17 17 19 18 18 19 18 15 16 16 15 14 14 14 13 13 12 12 12 11 11 10 9 9 9 9 8 9 9 9 9 9 9 9 10 10 10 10
17 14 13 15 16 16 16 17 18 16 18 18 18 17 16 16 16 15 15 14 13 13 12 11 11 11 10 9 9 8 8 8 8 8 8 8 8 8 8 8 8 9 9 9
16 13 14 14 16 16 15 16 17 17 17 18 18 17 18 17 17 15 14 13 13 12 11 11 11 10 10 9 8 8 7 7 7 8 7 7 7 7 7 7 7 8 8 9
16 15 14 14 15 16 17 14 15 15 16 16 17 16 17 15 15 15 14 13 12 11 11 11 10 10 9 8 7 7 6 7 7 7 7 6 6 6 6 6 7 7 7 8
16 15 14 14 15 16 14 14 13 14 15 15 15 15 16 16 15 14 14 13 12 11 10 10 9 9 8 7 7 6 6 6 6 6 6 6 5 4 5 6 6 6 6 7
16 16 15 16 17 16 15 14 14 14 15 15 14 13 13 13 12 12 12 11 11 10 9 8 8 7 7 7 6 6 5 5 5 5 5 4 4 4 4 4 5 4 5 5
15 16 17 16 16 17 15 14 13 14 16 14 14 13 13 12 14 13 11 10 9 8 8 7 7 7 7 6 5 5 5 5 5 5 4 4 4 4 4 3 4 4 4 4
15 15 16 16 16 16 14 13 13 15 14 13 13 13 13 13 12 10 9 9 8 7 7 6 6 6 6 5 5 5 5 5 5 4 4 4 4 4 3 3 3 3 3 3
15 15 16 15 15 15 13 12 14 13 12 13 12 12 12 12 10 9 9 8 7 7 6 6 6 6 5 5 4 5 5 5 4 4 4 4 4 4 4 3 3 3 3 3
14 14 15 15 16 13 14 14 12 12 13 11 12 11 11 10 10 9 8 8 7 7 6 6 5 5 5 5 5 5 5 4 4 4 4 4 4 4 4 4 4 3 2 2
13 12 13 13 15 14 13 12 11 11 11 10 10 10 9 9 9 8 8 7 7 6 6 5 5 5 5 5 5 4 4 3 3 3 3 3 3 3 3 3 3 3 2 1
14 12 13 14 15 13 12 12 12 10 9 8 8 8 8 7 8 7 7 7 6 6 5 5 5 4 4 4 4 3 3 3 3 3 3 3 3 3 3 3 3 3 2 2
12 14 13 15 14 13 11 10 10 9 8 8 8 7 7 6 6 6 6 6 5 5 5 5 4 4 4 3 3 3 3 2 2 2 2 2 2 2 2 2 2 2 2 1
Height
765 774 766 753 751 749 756 759 749 741 721 724 727 723 717 731 730 724 713 711 713 722 735 735 741 741 744 744 748 754 756 757 758 764 769 771 772 775 778 782 785 789 792 795
764 762 746 747 745 747 751 750 739 733 724 726 721 723 716 728 735 732 723 716 719 733 734 735 736 742 746 746 751 752 754 756 758 762 768 767 772 775 778 782 784 788 791 793
754 743 745 756 754 748 747 743 734 733 722 724 724 739 735 728 731 730 727 727 728 727 732 738 742 741 746 746 746 754 756 757 761 764 767 770 776 777 778 780 783 786 788 791
752 743 750 749 752 751 743 726 736 729 716 720 718 728 741 738 734 732 731 731 733 731 735 740 741 741 748 745 747 752 753 757 758 764 769 773 774 775 776 779 782 784 786 787
753 748 742 742 747 735 735 727 725 731 729 727 726 719 741 747 735 733 733 734 737 736 738 741 744 744 746 748 750 750 753 757 759 759 761 763 768 770 775 776 781 779 782 782
757 740 740 740 733 729 732 731 729 727 723 722 731 721 738 753 753 745 742 746 740 736 742 746 755 753 753 750 750 749 751 754 756 758 759 762 765 768 773 772 772 773 774 777
736 744 749 747 742 734 730 725 721 714 713 724 737 722 749 757 746 750 752 751 746 743 746 753 756 755 754 754 751 754 755 756 753 754 755 757 760 764 764 765 769 770 771 772
739 737 749 741 735 724 728 720 720 713 711 728 728 742 752 756 752 755 754 753 753 754 756 758 759 758 755 750 751 753 755 754 754 755 756 757 756 758 761 764 767 766 766 769
742 742 744 735 728 727 718 716 708 704 699 713 736 748 748 751 756 756 758 756 756 759 763 764 766 763 756 758 758 759 760 760 761 760 758 758 756 758 758 760 762 763 762 764
749 741 740 728 726 721 723 716 713 705 716 725 729 730 738 744 753 755 760 761 762 762 764 764 768 767 765 765 766 765 764 763 762 760 759 763 758 759 759 759 761 761 761 760
737 736 734 724 728 729 720 714 707 707 713 705 722 739 730 740 743 749 756 762 766 770 771 771 771 769 769 770 770 768 766 766 765 764 764 764 760 762 760 760 760 762 759 758
735 729 734 732 726 729 727 720 710 707 717 710 707 742 737 740 746 752 761 766 769 771 774 773 773 773 774 772 770 770 774 770 767 769 768 766 764 763 763 761 763 759 757 756
735 731 734 727 725 719 722 718 712 711 710 723 712 740 740 746 752 757 762 766 768 771 774 775 775 775 777 777 776 775 775 769 774 771 770 768 765 763 766 764 759 757 756 756
739 738 741 736 745 737 730 724 716 716 721 714 724 740 744 750 756 762 765 765 769 772 773 777 780 780 778 778 775 773 771 773 771 770 770 769 768 762 758 755 756 755 756 754
735 751 752 743 741 739 735 732 728 732 725 728 732 735 743 748 753 758 762 768 771 774 778 776 776 775 775 774 774 775 772 771 767 765 766 764 760 759 759 758 757 754 753 752
739 753 752 749 741 740 744 740 735 736 732 731 731 738 736 742 747 758 762 765 768 771 772 774 775 775 776 772 773 776 774 771 769 768 768 764 759 756 756 755 752 752 751 750
743 747 750 751 745 743 738 752 747 745 743 742 735 744 740 751 756 759 762 767 770 772 772 772 776 777 777 776 779 778 775 772 771 770 766 765 764 762 762 759 758 752 748 749
747 750 754 751 745 745 752 755 756 753 750 749 751 752 750 751 756 761 763 766 770 776 778 780 778 778 776 773 775 775 774 775 773 772 770 768 766 763 760 757 754 751 748 747
748 745 751 746 740 748 752 755 754 752 748 752 753 757 759 762 764 763 768 770 772 776 778 778 777 774 772 770 776 777 777 773 769 768 768 767 763 759 756 754 752 749 746 743
751 747 745 744 749 741 749 757 760 758 747 755 755 758 763 766 759 761 769 773 775 777 778 779 779 780 781 783 783 780 775 768 765 768 764 763 762 755 755 752 750 747 743 739
755 753 751 749 748 746 753 759 760 755 758 757 759 760 763 762 767 772 776 778 780 781 781 781 781 781 781 780 778 775 772 770 769 766 764 762 755 749 749 748 746 743 739 737
758 754 751 754 754 754 759 765 759 760 764 762 764 764 766 767 772 775 777 779 780 781 781 781 780 780 778 777 776 774 772 770 768 765 761 756 752 750 748 745 742 740 737 735
760 759 754 755 748 756 757 758 763 764 762 766 766 768 770 772 773 775 776 777 779 780 780 779 779 777 776 775 774 771 768 766 764 762 759 756 752 749 746 743 739 736 735 732
760 765 760 759 750 755 758 761 765 767 767 769 770 772 774 773 775 777 778 779 780 780 780 779 777 774 772 771 769 768 766 764 762 759 756 752 749 746 743 740 737 734 732 729
758 764 756 754 749 756 758 761 763 768 771 772 774 774 774 776 777 778 778 778 777 776 776 776 774 771 769 767 766 765 762 760 757 754 751 748 745 742 739 737 735 733 730 729
756 750 753 742 750 754 760 765 766 767 771 772 773 775 777 778 778 779 778 777 776 775 774 771 769 767 766 765 763 760 758 755 752 748 746 743 740 738 735 732 729 728 726 724
Wind_Speed
12 7 11 17 18 19 11 14 14 11 14 18 23 19 14 5 7 12 16 15 8 9 3 9 15 12 9 14 20 19 22 22 17 11 14 14 19 17 14 12 12 11 11 11
6 13 17 11 13 17 16 14 16 14 11 11 19 17 13 2 7 9 12 11 9 9 8 6 14 11 5 5 16 17 15 17 11 8 11 7 8 9 10 7 6 4 5 6
13 12 10 10 10 11 13 17 13 6 12 15 14 3 6 7 7 4 5 1 3 11 12 5 0 12 4 7 11 14 12 9 11 10 7 6 10 10 8 8 6 6 4 7
10 11 10 9 7 9 11 12 10 7 9 4 11 6 2 5 8 4 6 5 5 10 10 6 3 5 9 5 4 5 12 15 11 17 14 12 11 9 7 8 8 10 9 10
2 7 6 5 4 10 3 6 8 3 2 8 7 4 3 7 6 8 6 8 6 10 12 11 5 3 3 6 14 14 17 21 27 28 29 23 20 18 17 14 16 9 11 13
9 8 4 5 9 6 12 6 7 8 3 3 2 3 4 4 5 5 6 6 8 13 11 11 3 6 6 3 6 14 17 17 18 23 29 32 30 25 23 26 19 17 13 15
3 1 4 3 4 5 3 6 2 4 1 4 2 5 4 4 5 2 5 6 11 13 12 8 4 7 8 11 10 9 7 4 4 2 5 12 24 27 31 28 27 24 24 23
4 1 3 1 4 3 5 5 4 2 3 4 7 5 4 5 3 9 7 11 12 13 10 9 6 8 10 14 13 12 10 10 8 7 6 4 3 6 15 17 19 20 20 23
3 4 4 5 5 5 4 2 6 3 8 6 3 5 7 9 9 9 10 13 13 13 9 8 8 10 16 14 14 13 12 12 10 9 9 8 6 4 1 2 7 16 19 24
2 1 3 4 4 4 4 7 3 1 2 5 5 10 6 8 10 9 9 12 12 10 10 9 7 11 13 13 12 12 13 13 12 12 10 8 7 5 4 3 5 6 9 13
5 1 2 3 6 7 4 5 1 1 3 2 4 4 6 9 11 12 11 12 11 8 7 7 8 11 12 12 12 13 14 14 14 13 10 8 7 7 6 5 6 7 7 8
5 4 4 3 1 1 4 10 7 4 4 4 8 4 2 8 10 10 10 10 9 8 6 7 9 11 11 12 13 13 12 12 13 12 11 10 9 8 7 7 8 8 8 8
5 4 1 2 3 2 6 11 11 3 3 5 3 7 8 11 9 9 9 9 8 8 6 6 7 9 9 10 10 10 11 12 10 9 10 10 10 9 8 8 8 8 8 7
5 5 6 6 5 5 6 12 14 7 6 8 7 12 13 11 10 8 8 8 7 6 6 5 5 7 8 9 10 11 12 11 12 11 10 9 10 12 14 14 12 9 8 8
3 4 4 8 6 5 7 10 12 12 11 8 7 10 11 10 9 8 7 7 6 5 4 6 7 7 10 11 11 12 12 14 16 15 15 14 13 11 10 11 13 12 10 10
3 2 1 4 6 5 9 9 7 9 8 7 8 9 7 11 10 8 7 4 1 2 4 6 7 8 9 11 11 12 13 14 14 14 13 14 15 17 18 16 14 11 11 12
3 2 3 2 4 2 2 9 7 3 6 6 2 4 8 7 7 8 6 4 2 2 5 7 8 9 10 11 11 12 13 13 12 12 12 13 14 15 14 15 16 15 13 12
3 2 1 2 4 1 2 2 2 4 2 2 4 3 4 4 2 2 1 3 0 3 4 6 9 11 11 11 12 12 11 10 10 9 11 11 12 14 15 15 15 16 15 15
6 2 1 2 3 2 4 3 1 2 3 4 4 4 5 4 4 5 3 2 1 2 3 5 6 8 11 13 15 14 13 11 11 12 13 13 13 14 15 17 17 17 16 16
4 3 3 1 1 2 4 3 1 2 2 5 4 7 7 6 5 4 6 2 2 3 4 5 5 6 5 7 9 11 13 14 16 17 16 15 14 14 14 15 16 16 15 16
2 2 3 2 2 1 3 4 1 3 3 3 2 3 4 3 4 5 3 0 1 2 3 4 5 5 6 8 8 10 10 11 13 15 17 17 17 18 16 17 16 15 14 15
2 2 1 1 2 2 8 4 3 3 2 1 1 1 3 3 2 3 3 3 3 3 4 5 6 7 8 9 9 12 13 13 14 15 17 18 18 18 19 18 19 17 16 15
2 3 3 3 3 2 7 2 3 3 2 1 2 1 2 3 3 3 3 3 4 6 6 7 9 12 12 12 12 14 14 14 15 16 17 18 17 17 17 18 19 19 17 15
3 3 3 4 4 6 5 4 3 1 1 1 1 0 1 4 3 4 4 5 6 7 9 10 12 15 16 14 14 15 16 16 17 18 19 19 18 18 18 17 17 16 16 17
3 5 4 6 9 3 6 5 2 4 2 2 2 0 2 3 4 4 6 6 9 11 12 13 15 17 18 16 16 16 17 17 18 19 19 19 18 18 17 18 17 17 18 18
7 6 5 2 5 2 4 2 2 5 5 3 3 2 1 3 5 5 7 10 12 14 15 16 17 18 19 17 19 19 19 18 19 20 18 18 18 18 18 19 20 19 20 21
Wind_Direction
198 216 224 233 228 253 271 260 280 272 242 211 215 220 217 25 356 274 244 239 246 210 209 183 199 177 162 159 181 174 174 177 186 223 211 203 204 189 184 183 184 192 199 210
219 245 252 305 274 267 256 252 259 269 232 225 203 226 205 195 303 316 289 250 250 151 108 55 144 175 207 192 183 193 195 185 180 219 204 195 199 198 199 191 189 216 233 235
253 259 317 255 266 249 244 248 262 270 191 216 157 213 231 247 260 266 289 46 209 142 110 105 54 202 239 283 245 219 188 189 214 226 219 202 220 216 197 192 184 203 218 238
272 279 273 271 259 227 246 230 228 36 162 165 204 179 165 318 278 218 218 143 123 102 91 104 4 82 249 230 110 204 234 222 203 225 225 226 242 246 226 203 232 268 279 251
302 286 311 283 274 297 136 105 108 167 257 132 192 232 99 20 234 175 129 106 135 103 92 55 4 346 286 217 224 222 220 206 224 227 234 245 252 249 258 259 253 254 256 257
247 266 343 327 307 332 157 166 223 217 235 116 50 300 45 331 303 317 69 76 80 91 86 82 76 111 107 124 194 222 236 242 235 230 233 232 235 240 239 245 233 236 236 244
266 358 320 296 336 327 242 197 211 209 135 66 337 67 54 351 306 306 89 124 86 69 74 78 42 66 59 75 82 113 125 91 65 127 207 223 234 233 230 233 225 227 234 232
322 135 338 115 232 235 195 294 308 17 115 102 83 22 23 85 38 81 70 92 80 73 72 53 56 77 72 59 64 78 74 65 53 54 59 68 91 193 205 222 225 223 228 238
326 35 306 251 341 356 351 293 333 91 91 83 84 138 110 83 87 86 81 75 74 71 65 81 59 48 66 68 60 61 66 62 52 45 44 38 43 24 67 268 229 238 241 249
358 63 303 309 294 232 253 329 283 21 108 74 68 47 78 95 96 98 90 84 83 76 71 69 56 59 60 60 60 58 56 53 41 33 32 16 15 2 345 314 270 259 251 248
306 319 306 295 18 5 343 10 329 355 4 88 117 90 54 104 110 109 105 102 95 89 83 76 57 52 52 52 51 50 42 36 32 26 17 8 8 343 331 315 299 275 257 244
31 346 46 31 328 272 278 19 8 334 37 17 86 101 148 108 111 113 108 100 92 92 86 76 64 55 44 39 36 38 33 34 22 8 6 8 1 345 326 315 301 296 293 270
1 13 254 146 182 139 41 19 11 22 41 30 354 123 155 130 125 118 114 103 91 85 82 79 67 56 45 33 30 30 23 23 17 14 0 354 353 351 328 310 302 292 280 271
286 42 34 45 46 328 21 21 27 40 34 47 28 132 154 150 139 136 128 115 114 101 75 55 50 48 45 32 23 16 12 7 3 0 357 354 346 341 337 331 314 299 281 269
351 63 44 55 43 57 42 33 30 49 31 57 94 134 161 160 154 160 151 147 135 105 66 51 37 29 21 18 13 6 2 355 353 352 348 347 344 343 335 326 316 302 285 266
19 118 61 51 36 86 75 43 43 39 34 74 90 98 158 166 159 153 164 151 127 74 44 25 16 16 11 13 7 357 355 351 348 347 343 346 346 341 336 330 324 301 283 276
29 82 352 64 1 346 98 19 24 43 31 349 32 51 152 157 174 184 168 175 157 16 5 6 1 1 360 2 353 352 347 346 344 340 344 345 343 338 332 327 319 313 290 266
94 81 45 340 273 54 72 42 301 317 356 58 79 88 185 189 139 145 192 217 355 358 353 351 347 342 350 358 359 350 349 342 338 337 337 337 336 332 331 328 325 319 309 283
13 344 61 305 37 113 154 141 253 333 153 178 165 156 142 123 183 217 173 61 0 329 337 332 337 344 343 351 341 338 336 339 340 337 329 328 327 322 325 327 323 319 312 298
342 332 303 328 0 310 67 112 71 294 198 147 167 162 167 173 230 91 155 148 331 339 333 330 329 318 305 314 313 315 322 329 329 326 324 321 318 319 312 313 315 309 302 294
321 297 255 228 292 131 109 106 11 263 49 121 157 140 166 213 30 89 91 275 323 314 304 311 303 298 299 303 301 294 296 292 298 306 307 309 316 320 316 312 311 311 303 295
290 279 205 202 247 240 150 136 246 44 56 115 160 199 250 319 356 354 349 326 324 305 288 282 289 287 285 279 278 281 283 294 300 302 306 307 311 312 311 309 309 310 311 300
251 319 342 274 32 79 189 350 63 16 13 174 241 170 258 285 294 321 308 286 291 292 293 296 293 290 287 280 277 284 292 301 302 302 300 300 300 301 303 305 306 309 305 301
208 201 250 316 149 231 214 218 247 233 257 39 101 318 237 286 316 305 293 288 285 286 286 283 280 278 279 280 278 283 294 298 296 296 295 296 296 297 298 299 300 295 297 298
18 156 240 265 268 234 236 244 256 205 195 171 122 170 273 303 300 293 288 279 279 281 282 278 277 278 280 288 291 293 293 293 290 287 288 291 290 290 291 290 287 287 283 283
188 202 203 280 70 35 95 43 264 207 203 193 201 210 237 276 283 290 284 286 284 284 286 281 278 280 284 289 290 289 291 291 290 289 288 286 288 288 288 288 289 285 284 285